Wind_Speed
4 4 4 4 4 4 4 5 5 6 6 6 6 6 6 5 5 4 3 3 3 3 3 2 2 2 2 2 2 2 2 2 2 1 1 1 1 2 2 3 3 1 1
4 4 4 3 4 3 4 4 4 5 5 5 5 5 5 5 4 4 4 3 3 2 2 2 2 2 2 2 2 1 1 1 1 1 1 1 1 1 2 2 2 1 1
4 4 4 4 4 3 4 3 3 4 4 4 4 4 5 5 4 4 4 3 3 3 2 2 2 2 2 1 1 1 1 1 1 2 1 2 2 1 1 2 2 2 2
4 4 4 4 4 4 3 3 2 3 3 3 4 4 4 4 3 4 3 3 3 2 2 2 2 2 1 2 1 1 1 1 1 1 1 2 2 2 2 2 2 2 2
3 3 4 4 4 3 3 3 2 2 3 3 3 4 3 3 3 3 3 2 1 1 2 2 2 1 1 1 1 1 1 1 1 1 0 1 2 2 2 2 2 3 3
4 4 4 3 4 3 3 3 3 3 3 4 3 3 3 3 3 2 1 1 0 1 2 2 2 1 1 2 1 0 1 0 0 0 0 1 1 2 2 2 2 3 3
4 4 4 4 3 3 3 4 4 4 4 3 2 3 3 2 2 1 1 0 1 1 2 2 1 1 1 2 2 1 1 1 0 1 2 2 1 2 2 3 2 2 2
4 4 4 4 4 3 3 3 3 3 3 2 2 3 2 2 2 1 1 1 1 2 2 2 1 1 1 2 2 2 2 1 1 1 2 2 2 2 3 3 3 2 3
4 3 3 4 3 4 3 3 3 2 2 2 2 3 2 2 1 1 1 1 2 2 3 2 2 2 2 2 2 2 2 1 1 1 3 3 2 2 2 3 3 3 3
3 3 2 2 2 2 2 3 2 1 1 1 2 2 2 2 1 1 1 2 2 3 3 2 2 2 3 2 2 1 0 1 1 2 3 2 3 3 2 3 3 3 3
3 3 3 2 2 2 2 1 1 1 0 1 2 2 2 2 2 2 2 2 2 2 2 3 3 3 3 2 2 1 1 2 3 3 2 2 2 3 3 3 3 3 4
3 3 3 2 2 2 2 1 1 1 1 2 2 3 3 3 3 2 2 2 3 3 3 4 3 4 4 4 3 2 2 3 3 3 3 3 3 3 3 3 4 4 4
3 3 3 3 2 2 2 2 2 2 2 2 3 3 3 3 3 3 3 3 3 3 4 4 4 4 4 5 4 3 3 4 3 3 3 4 4 4 4 4 5 5 5
3 3 4 4 3 3 3 3 2 2 3 3 3 3 3 3 3 3 4 4 4 3 4 4 5 5 5 5 5 4 4 4 4 4 4 5 5 5 5 5 6 6 5
4 4 4 4 4 4 4 3 4 4 3 2 2 2 2 3 3 3 4 4 4 4 4 5 6 6 6 6 5 5 5 5 5 5 5 5 5 5 5 5 6 7 6
4 4 4 4 4 5 5 4 4 4 4 4 3 3 3 3 4 4 4 5 5 5 5 6 6 7 7 6 6 6 5 5 5 5 5 5 6 6 6 6 7 6 7
5 4 5 5 5 6 6 5 5 5 5 4 5 4 4 4 5 5 5 6 6 6 6 6 6 6 7 7 6 6 6 6 6 7 7 7 7 8 8 8 8 8 8
7 5 5 6 6 6 6 6 6 6 5 5 5 5 5 5 6 6 6 6 6 6 6 7 7 7 7 7 6 7 7 7 7 8 8 8 8 9 9 9 10 9 10
7 7 7 7 7 7 7 7 6 6 5 6 6 6 6 6 7 7 7 6 6 7 7 7 8 8 8 7 6 7 7 7 7 8 8 8 9 10 11 11 11 10 10
8 8 8 7 7 7 7 6 6 6 6 6 6 6 7 7 8 7 7 7 7 8 8 8 8 8 8 8 7 7 7 7 8 8 9 10 10 10 11 12 12 12 12
9 9 9 9 8 7 7 6 6 6 7 7 7 7 8 8 8 7 7 7 8 8 8 8 9 9 8 8 7 7 8 8 9 10 10 10 11 11 12 12 13 13 13
10 10 10 10 8 7 7 7 7 7 7 8 8 8 8 8 8 8 8 8 8 8 8 9 10 9 9 9 9 8 9 10 10 11 11 12 12 12 12 12 13 13 14
11 10 10 10 9 8 7 7 8 8 8 9 8 9 8 8 7 7 7 8 8 7 8 10 10 10 10 9 10 10 10 11 11 11 11 12 12 12 13 13 13 14 15
11 11 10 10 10 9 8 8 8 8 8 8 8 8 8 6 6 6 7 7 6 8 9 10 11 11 11 11 11 11 12 12 12 12 12 13 13 13 13 14 14 15 16
12 12 11 11 11 10 9 9 9 8 8 8 9 8 8 7 6 7 8 8 8 10 11 12 12 12 12 12 12 12 12 13 13 13 13 14 14 15 15 15 16 17 17
13 13 12 11 11 11 10 10 9 9 9 9 8 8 7 7 7 8 8 9 10 11 12 12 13 13 13 14 13 13 13 14 14 14 14 15 16 17 17 17 18 18 18
Wind_Direction
102 99 105 112 115 117 133 137 146 150 155 157 154 152 150 146 139 134 132 116 116 112 105 95 90 87 95 116 120 131 130 133 149 179 159 171 175 167 169 152 144 137 133
98 97 105 113 115 119 126 132 147 160 159 155 154 152 152 149 142 133 126 116 118 111 96 75 77 83 97 112 96 104 134 150 186 199 194 218 211 160 168 171 167 164 193
84 83 91 104 115 120 116 119 137 160 168 164 159 159 153 148 139 135 126 122 115 106 81 65 58 69 89 71 68 112 131 156 194 216 205 227 229 206 187 190 192 203 219
83 81 90 109 113 112 105 109 140 165 172 166 167 163 158 152 147 142 133 133 116 100 75 51 45 55 79 61 48 85 111 139 150 201 233 239 226 200 204 209 221 225 225
82 89 97 104 110 112 105 102 115 150 168 165 167 169 163 155 148 144 140 137 116 79 39 31 30 30 45 44 41 79 123 137 161 185 254 255 205 199 217 211 236 246 243
85 95 103 96 99 99 94 83 82 105 148 157 157 164 151 145 144 146 146 126 86 26 15 7 26 17 13 6 356 42 164 160 211 271 327 273 208 199 214 229 247 263 252
82 90 92 77 83 81 77 81 84 96 112 132 141 152 154 151 157 173 195 248 325 327 333 336 17 24 355 341 335 314 280 278 329 331 316 287 266 223 249 254 271 286 265
74 80 71 71 79 77 68 78 92 96 101 123 149 157 157 153 164 195 227 293 320 310 308 322 8 9 355 338 337 325 305 277 329 334 311 308 287 259 258 267 267 274 282
70 71 67 67 69 67 68 71 80 96 124 150 158 165 165 162 180 215 238 295 305 308 310 310 330 339 352 343 332 306 302 287 266 290 293 315 302 274 256 258 267 265 267
55 46 50 68 74 60 51 44 42 69 122 157 183 187 201 215 230 258 274 302 305 305 312 324 334 324 344 340 320 296 320 329 301 305 294 307 296 275 261 265 269 279 269
43 27 23 36 44 37 32 28 25 34 115 205 227 242 242 252 255 263 277 288 294 324 339 346 354 354 349 356 338 305 335 310 308 302 301 301 290 282 274 274 275 276 272
39 28 3 20 17 11 13 5 3 351 305 268 265 257 255 273 274 269 273 267 289 317 343 346 342 346 346 351 346 328 312 299 294 302 311 303 296 290 288 292 277 268 269
28 13 356 0 357 341 350 343 336 337 308 282 272 272 267 277 279 280 275 278 294 306 327 334 330 333 330 334 331 317 310 308 309 300 311 303 298 292 293 281 275 270 271
16 1 1 352 346 342 336 326 331 332 329 295 286 279 270 278 293 294 287 281 287 294 304 313 318 325 326 329 325 314 318 318 310 303 297 305 294 296 298 285 276 277 279
357 351 359 353 342 341 333 331 328 332 335 316 308 306 297 298 311 318 325 309 299 300 305 314 320 330 337 334 327 318 312 315 315 313 308 310 301 294 301 299 289 285 279
358 348 338 338 342 336 333 330 329 336 338 328 317 306 299 304 315 316 323 322 317 309 309 316 324 327 327 328 322 315 316 309 310 314 315 316 306 297 295 298 300 291 285
347 343 334 323 326 328 326 324 317 317 321 327 329 312 298 298 307 315 316 317 315 315 320 322 322 326 327 322 315 311 313 314 305 303 305 307 307 302 298 295 295 291 288
345 342 333 327 326 325 326 320 313 314 319 320 320 310 299 300 305 313 318 318 320 319 325 328 328 328 329 324 318 313 314 315 311 305 305 303 304 302 300 293 291 288 288
343 341 333 323 321 320 329 324 319 319 318 318 317 309 301 297 300 306 310 313 318 323 326 325 330 332 332 328 322 316 313 313 308 306 303 300 298 296 294 292 290 285 286
340 339 339 324 319 318 323 324 326 328 327 325 320 316 311 306 307 308 309 311 315 320 322 323 327 328 330 326 320 317 316 312 311 308 306 303 297 292 291 290 288 288 286
339 336 335 331 324 321 324 330 331 335 332 325 318 316 315 310 312 311 312 311 314 317 320 327 325 321 324 322 321 321 318 316 315 311 308 308 301 295 293 292 290 288 288
336 334 334 333 329 325 327 332 330 326 325 325 320 316 315 310 307 311 307 307 307 311 319 323 323 319 315 315 317 318 316 314 312 311 308 310 308 300 297 296 293 290 286
330 330 331 332 331 331 331 332 336 333 327 324 326 324 316 311 305 310 310 303 302 307 314 320 321 318 315 314 313 311 309 308 310 310 307 307 308 305 299 298 295 293 289
326 326 325 326 328 330 328 326 329 329 326 325 324 323 319 317 311 316 318 313 308 314 316 317 317 315 316 315 312 311 309 309 309 308 307 309 310 308 304 299 298 296 292
321 321 321 320 323 327 326 323 323 325 325 324 324 319 319 319 316 319 322 320 317 317 317 317 318 315 315 314 313 311 310 308 308 307 305 306 308 308 307 304 300 297 293
312 313 313 314 316 321 322 320 319 321 320 319 317 315 320 322 316 317 318 317 316 316 315 315 316 316 315 313 312 311 309 308 305 303 303 303 304 307 307 307 303 300 297
Height
5885 5885 5885 5886 5886 5886 5886 5887 5887 5888 5889 5889 5890 5891 5891 5892 5892 5893 5893 5893 5893 5894 5894 5894 5894 5894 5895 5895 5895 5895 5895 5895 5895 5895 5896 5896 5897 5897 5898 5898 5899 5899 5900
5886 5886 5886 5886 5886 5887 5887 5887 5888 5889 5889 5890 5891 5892 5892 5893 5893 5894 5894 5894 5894 5894 5895 5894 5895 5895 5895 5895 5895 5895 5895 5895 5895 5895 5896 5897 5897 5897 5898 5898 5899 5900 5900
5887 5887 5887 5887 5887 5888 5888 5888 5888 5889 5889 5890 5891 5892 5893 5893 5894 5894 5895 5895 5895 5895 5895 5895 5895 5895 5895 5895 5895 5895 5895 5895 5895 5896 5896 5897 5897 5897 5898 5898 5899 5900 5900
5888 5888 5888 5888 5888 5889 5889 5889 5888 5888 5889 5890 5892 5893 5893 5894 5894 5895 5895 5896 5896 5896 5896 5896 5895 5895 5895 5896 5896 5895 5896 5896 5896 5896 5896 5897 5897 5897 5898 5898 5899 5899 5900
5889 5889 5889 5889 5890 5890 5890 5889 5888 5887 5888 5890 5892 5893 5894 5895 5895 5896 5896 5896 5896 5896 5896 5896 5896 5896 5896 5895 5896 5896 5896 5896 5896 5896 5896 5897 5897 5897 5898 5898 5898 5899 5899
5890 5890 5890 5891 5891 5891 5890 5889 5887 5885 5886 5890 5892 5894 5894 5895 5896 5896 5897 5897 5897 5897 5897 5897 5896 5896 5896 5896 5896 5896 5896 5896 5896 5896 5896 5897 5897 5897 5897 5898 5898 5899 5899
5892 5892 5892 5892 5892 5892 5891 5891 5889 5888 5889 5891 5893 5894 5895 5896 5896 5897 5897 5897 5897 5897 5897 5896 5896 5896 5896 5896 5896 5896 5896 5896 5896 5896 5897 5897 5897 5897 5897 5898 5898 5898 5899
5893 5893 5893 5893 5893 5893 5893 5892 5892 5892 5892 5893 5894 5895 5895 5896 5897 5897 5897 5897 5897 5897 5897 5897 5896 5896 5896 5896 5896 5895 5895 5896 5896 5897 5897 5897 5897 5897 5897 5898 5898 5898 5899
5895 5895 5895 5895 5895 5894 5894 5894 5894 5894 5894 5894 5894 5895 5896 5896 5897 5897 5897 5897 5897 5897 5897 5897 5897 5897 5896 5896 5895 5895 5895 5896 5896 5896 5896 5896 5897 5897 5897 5898 5898 5898 5899
5896 5896 5896 5896 5896 5896 5896 5895 5895 5895 5895 5895 5895 5896 5896 5897 5897 5898 5898 5898 5897 5897 5897 5897 5897 5897 5896 5896 5895 5895 5895 5895 5896 5896 5896 5896 5897 5897 5897 5897 5898 5898 5898
5897 5897 5897 5896 5896 5896 5896 5896 5896 5896 5896 5896 5896 5896 5897 5897 5898 5898 5898 5898 5897 5896 5897 5897 5897 5897 5896 5896 5895 5895 5895 5895 5896 5895 5896 5896 5896 5896 5896 5897 5897 5897 5898
5899 5898 5898 5897 5897 5897 5897 5897 5897 5897 5897 5896 5897 5897 5897 5897 5897 5898 5897 5897 5897 5897 5897 5897 5896 5896 5896 5896 5895 5895 5895 5895 5895 5895 5895 5896 5896 5896 5896 5896 5897 5897 5897
5900 5899 5899 5899 5898 5898 5898 5898 5898 5897 5897 5897 5897 5897 5897 5897 5897 5897 5897 5897 5897 5897 5897 5896 5896 5896 5896 5895 5895 5895 5894 5894 5894 5895 5894 5895 5895 5895 5896 5896 5896 5896 5896
5901 5900 5900 5899 5899 5899 5898 5898 5898 5898 5897 5897 5897 5897 5897 5897 5897 5897 5897 5897 5897 5897 5897 5897 5896 5896 5895 5894 5894 5894 5894 5894 5894 5894 5894 5894 5894 5895 5895 5895 5895 5895 5895
5902 5901 5901 5900 5899 5899 5899 5898 5898 5897 5897 5897 5897 5897 5897 5897 5897 5897 5897 5897 5897 5896 5896 5896 5896 5895 5894 5894 5893 5893 5893 5893 5893 5893 5893 5893 5893 5894 5894 5894 5894 5894 5894
5902 5901 5901 5900 5900 5899 5899 5898 5898 5898 5897 5897 5897 5897 5897 5897 5897 5897 5897 5896 5896 5896 5896 5895 5895 5894 5893 5893 5892 5892 5892 5892 5892 5892 5892 5893 5893 5892 5892 5892 5892 5892 5893
5902 5902 5901 5900 5900 5899 5899 5898 5898 5898 5898 5897 5897 5897 5897 5897 5897 5897 5896 5896 5896 5896 5895 5895 5894 5893 5892 5891 5891 5891 5891 5891 5891 5891 5891 5892 5891 5891 5891 5891 5891 5891 5891
5903 5902 5901 5900 5900 5899 5898 5898 5898 5897 5897 5897 5897 5897 5897 5897 5897 5897 5896 5896 5896 5895 5895 5894 5893 5892 5891 5890 5889 5889 5889 5890 5889 5890 5890 5890 5890 5890 5889 5889 5889 5889 5889
5903 5903 5902 5901 5900 5899 5898 5898 5897 5897 5897 5897 5896 5896 5896 5896 5896 5896 5896 5896 5895 5895 5894 5893 5892 5891 5890 5889 5889 5888 5888 5888 5888 5888 5888 5888 5888 5888 5887 5887 5886 5886 5886
5903 5903 5902 5901 5900 5899 5898 5897 5897 5897 5896 5896 5896 5896 5895 5895 5895 5895 5895 5895 5895 5894 5893 5892 5891 5891 5890 5889 5888 5888 5888 5887 5887 5886 5886 5885 5885 5885 5885 5884 5884 5883 5883
5903 5902 5902 5900 5899 5899 5898 5897 5897 5896 5896 5895 5895 5895 5895 5895 5895 5894 5894 5894 5894 5893 5893 5892 5891 5890 5889 5888 5888 5887 5886 5886 5885 5885 5884 5883 5883 5882 5882 5881 5881 5880 5880
5903 5902 5901 5900 5899 5898 5897 5897 5896 5896 5895 5895 5894 5894 5894 5894 5894 5893 5893 5893 5893 5892 5892 5890 5890 5889 5888 5887 5886 5886 5885 5885 5883 5883 5882 5881 5880 5879 5879 5878 5878 5877 5877
5903 5902 5901 5900 5899 5898 5897 5896 5895 5895 5894 5894 5894 5893 5893 5892 5892 5892 5892 5891 5891 5891 5890 5889 5888 5888 5887 5886 5885 5884 5884 5883 5882 5881 5880 5879 5878 5877 5876 5875 5874 5873 5873
5902 5901 5900 5899 5898 5897 5897 5896 5895 5894 5894 5893 5893 5892 5891 5891 5891 5891 5890 5890 5889 5889 5889 5888 5887 5886 5885 5884 5883 5882 5881 5880 5879 5878 5877 5876 5875 5873 5872 5872 5871 5869 5868
5901 5900 5899 5898 5898 5897 5896 5895 5895 5894 5893 5893 5892 5891 5890 5890 5890 5890 5889 5889 5888 5888 5887 5886 5885 5884 5883 5882 5881 5880 5879 5877 5876 5876 5875 5873 5872 5870 5869 5868 5866 5865 5864
5900 5899 5898 5897 5897 5896 5895 5895 5894 5893 5892 5892 5891 5890 5889 5889 5889 5888 5888 5887 5887 5886 5886 5885 5884 5882 5881 5880 5879 5877 5876 5875 5874 5873 5872 5870 5869 5867 5865 5864 5862 5861 5860